Weather observations for the past three days for
Point Mugu, Naval Air Warfare Center
Imperial (Metric)
Date Time (pdt) Wind (mph) Vis. (mi.) Weather Sky Cond. Temperature (ºF) Relative Humidity Wind Chill (°F) Heat Index (°F) Pressure Precipitation (in)
Air Dwpt 6 hour altimeter (in) sea level (mb) 1 hr 3 hr 6 hr
Max. Min.
19 00:55 Calm 8.00 Fair CLR 57.9 55.9 93% 29.8 1009.1
18 23:55 SE 8 8.00 Fair CLR 61 60.1 97% 29.8 1009.4
18 22:55 SE 10 8.00 Partly Cloudy FEW009 FEW014 SCT280 62.1 61 69.1 57.9 96% 29.8 1009.4
18 21:55 SE 5 8.00 Fair CLR 61 60.1 97% 29.8 1009.1
18 20:55 Calm 7.00 Fair CLR 59 59 100% 29.78 1008.6
18 19:55 W 5 6.00 Fog/Mist FEW280 63 59 87% 29.77 1008.3
18 18:55 SW 8 7.00 A Few Clouds FEW280 64.9 60.1 84% 29.77 1008.0
18 17:55 SW 8 7.00 A Few Clouds FEW280 66.9 61 81% 29.76 1007.8
18 16:55 SW 9 7.00 Partly Cloudy SCT280 68 61 72 68 78% 29.77 1008.2
18 15:55 SW 10 7.00 Partly Cloudy SCT280 70 62.1 76% 29.78 1008.5
18 14:55 SW 12 7.00 A Few Clouds FEW014 FEW280 70 61 73% 29.8 1009.1
18 13:55 SW 12 6.00 A Few Clouds with Haze FEW014 FEW280 70 62.1 76% 29.8 1009.2
18 12:55 SW 12 4.00 A Few Clouds with Haze FEW020 71.1 62.1 73% 29.81 1009.4
18 11:55 SW 10 3.00 A Few Clouds with Haze FEW020 70 61 73% 29.8 1009.3
18 10:55 SW 8 4.00 Partly Cloudy with Haze SCT019 71.1 61 71.1 53.1 71% 29.8 1009.3
18 09:55 S 8 3.00 A Few Clouds with Haze FEW019 68 60.1 76% 29.78 1008.6
18 08:55 Calm 3.00 A Few Clouds with Haze FEW014 FEW019 66.9 59 76% 29.78 1008.7
18 07:55 Calm 4.00 A Few Clouds with Haze FEW014 FEW019 64 55.9 75% 29.78 1008.7
18 06:55 NW 6 3.00 Fog/Mist OVC019 57 54 90% 29.77 1008.0
18 05:55 NE 6 3.00 Fog/Mist BKN013 OVC018 54 51.1 90% 29.75 1007.6
18 04:55 Calm 5.00 Fog/Mist OVC016 53.1 51.1 55.9 52 93% 29.73 1007.0
18 03:55 N 6 5.00 Fog/Mist BKN021 52 50 93% 29.71 1006.2
18 02:55 Calm 4.00 Fog/Mist CLR 53.1 51.1 93% 29.71 1006.2
18 01:55 N 5 4.00 Fog/Mist FEW026 53.1 52 96% 29.72 1006.5
18 00:55 N 5 4.00 Fog/Mist BKN028 53.1 52 96% 29.73 1006.7
17 23:55 E 3 4.00 Fog/Mist OVC023 55.9 54 93% 29.73 1006.7
17 22:55 Calm 7.00 A Few Clouds FEW014 FEW200 55.9 55 68 55 97% 29.73 1006.7
17 21:55 W 3 7.00 A Few Clouds FEW014 FEW200 55.9 55 97% 29.73 1006.7
17 20:55 W 3 7.00 A Few Clouds FEW014 FEW200 57 55 93% 29.72 1006.5
17 19:55 W 7 7.00 Partly Cloudy FEW014 SCT200 59 54 83% 29.72 1006.6
17 18:55 SW 12 7.00 A Few Clouds FEW014 FEW250 62.1 55 78% 29.71 1006.3
17 17:55 S 8 7.00 A Few Clouds FEW014 FEW250 66 59 78% 29.71 1006.1
17 16:55 W 14 7.00 A Few Clouds FEW014 66.9 55.9 70 63 68% 29.71 1006.2
17 15:55 SW 14 6.00 A Few Clouds with Haze FEW014 FEW250 69.1 57 66% 29.73 1006.8
17 14:55 SW 10 6.00 Fog/Mist FEW014 64 60.1 87% 29.74 1007.2
17 13:55 SW 12 3.00 A Few Clouds with Haze FEW020 68 61 78% 29.75 1007.6
17 12:55 S 12 3.00 Fog/Mist FEW018 64 61 90% 29.76 1007.9
17 11:55 S 10 3.00 Partly Cloudy with Haze SCT022 69.1 60.1 73% 29.76 1008.0
17 10:55 SW 8 3.00 Partly Cloudy with Haze SCT020 69.1 60.1 69.1 59 73% 29.77 1008.1
17 09:55 SW 7 3.00 Partly Cloudy with Haze SCT020 69.1 59 70% 29.77 1008.0
17 08:55 Calm 3.00 Mostly Cloudy with Haze BKN020 68 59 73% 29.77 1008.3
17 07:55 NE 6 3.00 Overcast with Haze OVC021 63 57 81% 29.77 1008.0
17 06:55 N 3 2.50 Fog/Mist OVC019 59 57 93% 29.76 1007.7
16 22:55 S 5 7.00 Fair CLR 57 55.9 69.1 57 96% 29.73 1006.9
16 21:55 W 3 7.00 Fair CLR 60.1 57 90% 29.73 1007.0
16 20:55 Calm 7.00 Fair CLR 60.1 57 90% 29.72 1006.6
16 19:55 SW 5 7.00 Fair CLR 62.1 55.9 80% 29.72 1006.5
16 18:55 SW 8 7.00 Fair CLR 66 57 73% 29.71 1006.3
16 17:55 SW 8 7.00 Fair CLR 68 59 73% 29.71 1006.3
16 16:55 W 9 7.00 Fair CLR 68 59 70 68 73% 29.73 1006.8
16 15:55 SW 9 7.00 Fair CLR 69.1 57.9 68% 29.74 1007.2
16 14:55 SW 8 7.00 Fair CLR 69.1 59 70% 29.75 1007.5
16 13:55 SW 10 7.00 A Few Clouds FEW014 FEW020 69.1 59 70% 29.76 1008.0
16 12:55 SW 10 6.00 A Few Clouds with Haze FEW020 69.1 59 70% 29.78 1008.4
16 12:46 SW 10 6.00 A Few Clouds with Haze FEW020 69.1 59 70% 29.78 0.0
16 12:05 SW 14 6.00 Mostly Cloudy with Haze BKN016 68 59 73% 29.78 0.0
16 10:55 SW 8 7.00 Fair CLR 68 60.1 69.1 52 76% 29.78 1008.6
16 09:55 Vrbl 6 7.00 A Few Clouds FEW012 69.1 59 70% 29.78 1008.5
16 08:55 Vrbl 3 6.00 Fair with Haze CLR 66 55 68% 29.78 1008.5
16 07:55 Calm 6.00 Fair with Haze CLR 62.1 55.9 80% 29.77 1008.3
16 06:55 Calm 6.00 Fog/Mist CLR 57.9 55 90% 29.77 1008.2
16 05:55 NE 7 5.00 Fog/Mist CLR 53.1 51.1 93% 29.77 1008.2
Date Time (pdt) Wind (mph) Vis. (mi.) Weather Sky Cond. Air Dwpt Max. Min. Relative Humidity Wind Chill (°F) Heat Index (°F) altimeter (in) sea level (mb) 1 hr 3 hr 6 hr
6 hour
Temperature (ºF) Pressure Precipitation (in)